Home   Weather   Kaliningrad   Past weeks

Flag for Russia Past Weather in Kaliningrad, Russia — Yesterday and Last 2 Weeks

Now
46 °F

Scattered clouds.


Feels Like: 44 °F
Forecast: 35 / 46 °F
Wind: 6 mph from South

Location: Kaliningrad/Khrabrovo Airport

Current Time: Apr 25, 2017 at 10:47:59 am

Latest Report: Apr 25, 2017 at 10:00 am


Visibility: N/A

Pressure: 29.56 "Hg

Humidity: 93%

Dew Point: 45 °F

Location of KaliningradLocation

Past Weather in Kaliningrad — Graph

°F

Kaliningrad Temperature Yesterday

Maximum temperature yesterday: 48 °F (at 10:30 am)
Minimum temperature yesterday: 36 °F (at 2:00 am)
Average temperature yesterday: 43 °F

High & Low Weather Summary for the Past Weeks

 TemperatureHumidityPressure
High70 °F (Apr 10, 2:30 pm)100% (Apr 12, 3:30 pm)30.51 "Hg (Apr 12, 3:30 pm)
Low27 °F (Apr 18, 4:00 am)31% (Apr 10, 3:00 pm)29.45 "Hg (Apr 13, 2:00 am)
Average41 °F72%29.91 "Hg
* Reported Apr 10 9:00 am — Apr 25 9:00 am, Kaliningrad, Weather by CustomWeather, © 2017

Note: Actual official high and low records may vary slightly from our data, if they occured in-between our weather recording intervals... More about our weather records

Advertising

Kaliningrad Weather History for the Previous 24 Hours

Scroll right to see more
 ConditionsComfort  
Time TempWeatherWind HumidityBarometerVisibility
9:00 am
Tue, Apr 25
45 °FLight rain. More clouds than sun.6 mph93%29.56 "Hg6 mi
8:30 am45 °FLight rain. Overcast.6 mph100%29.59 "Hg4 mi
7:30 am43 °FLight rain. Overcast.3 mph100%29.59 "Hg5 mi
7:00 am43 °FLight rain. Overcast.1 mph100%29.59 "Hg4 mi
6:30 am43 °FSprinkles. Partly sunny.1 mph100%29.62 "Hg4 mi
6:00 am43 °FSprinkles. Passing clouds.3 mph100%29.62 "Hg4 mi
5:30 am43 °FSprinkles. Passing clouds.3 mph100%29.62 "Hg5 mi
5:00 am41 °FSprinkles. Passing clouds.3 mph100%29.62 "Hg6 mi
4:30 am43 °FSprinkles. Passing clouds.3 mph93%29.62 "HgN/A
3:00 am45 °FSprinkles. Passing clouds.8 mph76%29.65 "HgN/A
2:00 am45 °FPassing clouds.13 mph71%29.65 "HgN/A
1:00 am45 °FPassing clouds.13 mph71%29.65 "HgN/A
12:00 am43 °FSprinkles. Passing clouds.13 mph76%29.68 "HgN/A
11:00 pm
Mon, Apr 24
43 °FSprinkles. Passing clouds.13 mph81%29.71 "Hg6 mi
10:00 pm41 °FSprinkles. Passing clouds.13 mph93%29.74 "Hg6 mi
9:30 pm41 °FSprinkles. Passing clouds.13 mph87%29.77 "Hg6 mi
9:00 pm41 °FSprinkles. Passing clouds.13 mph93%29.77 "Hg6 mi
8:30 pm41 °FSprinkles. Partly sunny.13 mph93%29.77 "Hg5 mi
8:00 pm43 °FSprinkles. Partly sunny.13 mph81%29.80 "Hg5 mi
7:30 pm43 °FSprinkles. Partly sunny.17 mph76%29.80 "Hg5 mi
7:00 pm45 °FSprinkles. Partly sunny.13 mph71%29.80 "HgN/A
6:30 pm45 °FSprinkles. Partly sunny.15 mph66%29.80 "HgN/A
5:30 pm46 °FPartly sunny.13 mph50%29.83 "HgN/A
5:00 pm46 °FScattered clouds.13 mph50%29.83 "HgN/A
4:30 pm48 °FScattered clouds.15 mph50%29.83 "HgN/A
4:00 pm48 °FScattered clouds.13 mph40%29.83 "HgN/A
3:30 pm48 °FScattered clouds.13 mph40%29.86 "HgN/A
3:00 pm48 °FScattered clouds.15 mph32%29.86 "HgN/A
2:30 pm48 °FPartly sunny.15 mph40%29.86 "HgN/A
2:00 pm48 °FScattered clouds.13 mph43%29.89 "HgN/A
1:30 pm48 °FScattered clouds.10 mph46%29.89 "HgN/A
1:00 pm48 °FScattered clouds.10 mph50%29.89 "HgN/A
12:30 pm46 °FScattered clouds.13 mph46%29.89 "HgN/A
12:00 pm46 °FScattered clouds.15 mph50%29.89 "HgN/A
11:30 am48 °FPartly sunny.13 mph50%29.89 "HgN/A
11:00 am46 °FScattered clouds.13 mph53%29.89 "HgN/A
10:30 am48 °FScattered clouds.13 mph54%29.89 "HgN/A
10:00 am46 °FPartly sunny.10 mph57%29.89 "HgN/A
Weather by CustomWeather, © 2017

See weather overviewHow to use our weather pages